Weather History for Meriden, CT

Change the Weather History Date:

Friday, December 6, 2013

  Actual Average (KHVN) Record (KHVN)
Temperature  
Mean Temperature 45 °F -  
Max Temperature 53 °F 43 °F 62 °F (2001)
Min Temperature 37 °F 30 °F 12 °F (2002)
Degree Days  
Heating Degree Days 20    
Moisture  
Dew Point 43 °F    
Average Humidity 87    
Maximum Humidity 100    
Minimum Humidity 68    
Precipitation  
Precipitation 0.36 in - - ()
Sea Level Pressure  
Sea Level Pressure 30.00 in    
Wind  
Wind Speed 7 mph (NNW)    
Max Wind Speed 14 mph    
Max Gust Speed 20 mph    
Visibility 6 miles    
Events Fog , Rain    
Averages and records for this station are not official NWS values.
T = Trace of Precipitation, MM = Missing Value Source: NWS Daily Summary

Daily Weather History Graph

Daily Weather History Graph

Search for Another Location

Airport:

Trip Planner

Search our weather history database for the weather conditions in past years. The results will help you decide how hot, cold, wet, or windy it might be!

Date:

Astronomy

Dec. 06, 2013 Rise Set
Actual Time 7:03 AM EST 4:21 PM EST
Civil Twilight 6:32 AM EST 4:52 PM EST
Nautical Twilight 5:57 AM EST 5:27 PM EST
Astronomical Twilight 5:24 AM EST 6:00 PM EST
Moon 10:05 AM EST (12/6) 8:51 PM EST (12/6)
Length of Visible Light 10h 20m
Length of Day
9h 17m
Waxing Crescent, 19% of the Moon is Illuminated
Dec 6
Waxing Crescent
Dec 9
First Quarter
Dec 17
Full
Dec 25
Last Quarter
Jan 1
New

Hourly Weather History & Observations

Time (EST) Temp. Windchill Dew Point Humidity Pressure Visibility Wind Dir Wind Speed Gust Speed Precip Events Conditions
12:05 AM 52.0 °F - 51.1 °F 97% 29.95 in 0.8 mi South 5.8 mph - N/A   Mist
12:53 AM 52.0 °F - 51.1 °F 97% 29.93 in 0.5 mi SSE 5.8 mph - N/A Fog Fog
1:53 AM 52.0 °F - 51.1 °F 97% 29.92 in 0.2 mi South 4.6 mph - N/A Fog Fog
2:26 AM 52.0 °F - 51.1 °F 97% 29.90 in 0.5 mi South 5.8 mph - N/A Fog Fog
2:53 AM 52.0 °F - 51.1 °F 97% 29.90 in 0.5 mi South 10.4 mph - N/A Fog Fog
3:19 AM 52.0 °F - 51.1 °F 97% 29.90 in 1.2 mi South 5.8 mph - N/A   Overcast
3:53 AM 52.0 °F - 51.1 °F 97% 29.90 in 0.8 mi South 5.8 mph - N/A   Mist
4:53 AM 52.0 °F - 51.1 °F 97% 29.90 in 1.0 mi South 4.6 mph - N/A   Mist
5:10 AM 52.0 °F - 52.0 °F 100% 29.89 in 0.8 mi Calm Calm - N/A   Mist
5:49 AM 51.8 °F - 51.8 °F 100% 29.89 in 0.2 mi SE 3.5 mph - 0.00 in Fog , Rain Light Rain
5:53 AM 53.1 °F - 52.0 °F 96% 29.91 in 0.5 mi SSW 3.5 mph - 0.00 in Fog , Rain Light Rain
6:39 AM 51.1 °F - 48.9 °F 92% 29.94 in 2.0 mi NW 13.8 mph - 0.01 in Rain Light Rain
6:53 AM 48.9 °F - 46.9 °F 93% 29.96 in 4.0 mi NNW 9.2 mph - 0.01 in Rain Light Rain
7:06 AM 48.0 °F - 45.0 °F 89% 29.96 in 10.0 mi NNW 9.2 mph - 0.00 in   Overcast
7:53 AM 48.0 °F - 44.1 °F 86% 29.99 in 10.0 mi North 5.8 mph - 0.00 in   Overcast
8:53 AM 46.9 °F - 42.1 °F 83% 30.00 in 8.0 mi North 5.8 mph - 0.00 in Rain Light Rain
9:53 AM 46.0 °F 41.9 °F 41.0 °F 83% 30.02 in 10.0 mi North 8.1 mph - 0.00 in Rain Light Rain
10:07 AM 45.0 °F 41.2 °F 39.9 °F 82% 30.02 in 10.0 mi North 6.9 mph - 0.00 in Rain Light Rain
10:53 AM 45.0 °F 41.2 °F 39.0 °F 80% 30.03 in 10.0 mi North 6.9 mph - 0.00 in   Overcast
11:53 AM 45.0 °F 40.6 °F 37.9 °F 76% 30.02 in 9.0 mi North 8.1 mph - 0.00 in Rain Light Rain
12:53 PM 44.1 °F 40.8 °F 39.0 °F 82% 30.03 in 10.0 mi NNW 5.8 mph - 0.00 in   Overcast
1:53 PM 44.1 °F 38.6 °F 37.0 °F 76% 30.01 in 10.0 mi North 10.4 mph - N/A   Overcast
2:53 PM 44.1 °F 39.5 °F 34.0 °F 68% 30.03 in 10.0 mi NW 8.1 mph - N/A   Overcast
3:53 PM 43.0 °F 36.8 °F 33.1 °F 68% 30.06 in 7.0 mi NNW 11.5 mph - 0.00 in Rain Rain
4:53 PM 42.1 °F 40.2 °F 35.1 °F 76% 30.04 in 10.0 mi NNW 3.5 mph - 0.01 in   Overcast
5:53 PM 42.1 °F 37.1 °F 33.1 °F 70% 30.08 in 10.0 mi NNW 8.1 mph - 0.00 in Rain Light Rain
6:53 PM 39.9 °F 35.8 °F 33.1 °F 77% 30.09 in 10.0 mi NNW 5.8 mph - 0.00 in Rain Light Rain
7:53 PM 39.0 °F 34.0 °F 34.0 °F 82% 30.10 in 9.0 mi NNW 6.9 mph - 0.00 in Rain Light Rain
8:53 PM 37.9 °F 30.9 °F 34.0 °F 86% 30.14 in 5.0 mi NW 10.4 mph - 0.08 in Rain Rain
9:53 PM 37.0 °F 33.3 °F 34.0 °F 89% 30.10 in 6.0 mi North 4.6 mph - 0.11 in Rain Rain
10:53 PM 37.0 °F 29.3 °F 34.0 °F 89% 30.13 in 5.0 mi NNW 11.5 mph 19.6 mph 0.07 in Rain Rain
11:53 PM 37.0 °F 28.9 °F 33.1 °F 86% 30.14 in 5.0 mi North 12.7 mph - 0.08 in Rain Rain